Regional Weather Roundup
Issued by NWS

Home | Current Version | Previous Version | Text Only | Print | Product List | Glossary Off
Versions: 1 2 3 4 5 6 7 8 9 10 11 12 13 14 15 16 17 18 19 20 21 22 23 24 25 26 27 28 29 30 31 32 33 34 35 36 37 38 39 40 41 42 43 44 45 46 47 48 49 50

000
ASUS43 KFSD 111210
RWRSD

WEATHER ROUNDUP FOR SOUTH DAKOTA
NATIONAL WEATHER SERVICE SIOUX FALLS SD
600 AM CST THU FEB 11 2016

NOTE: "FAIR" INDICATES FEW OR NO CLOUDS BELOW 12,000 FEET WITH NO
SIGNIFICANT WEATHER AND/OR OBSTRUCTIONS TO VISIBILITY.


SDZ001>005-009-010-012>017-111300-
NORTHWEST AND NORTH CENTRAL SOUTH DAKOTA

CITY           SKY/WX    TMP DP  RH WIND       PRES   REMARKS
BUFFALO          N/A     31  28  89 S10       29.91F WCI  22
FAITH            N/A     28  26  92 SE9       30.04F WCI  19
MOBRIDGE       CLOUDY    20  16  84 SE8       30.11S WCI  10
$$

SDZ012>016-024>037-041>051-057-063-072>074-111300-
SOUTHWEST AND SOUTH CENTRAL SOUTH DAKOTA

CITY           SKY/WX    TMP DP  RH WIND       PRES   REMARKS
RAPID CTY ARPT   N/A     27  26  96 MISG      30.01S
PIERRE         CLOUDY    22  19  89 SE7       30.15S WCI  13
CUSTER         CLOUDY    39  19  44 NW8       30.01R
ELLSWORTH AFB  CLOUDY    27  27 100 S8        29.99S FOG     WCI  18
PHILIP         CLOUDY    30  27  88 E7        30.08F WCI  23
PINE RIDGE     CLOUDY    26  23  88 SW5       30.04F WCI  20
SPEARFISH      CLOUDY    45  27  49 W13G20    29.99S
WINNER         CLOUDY    27  22  81 SE9       30.16R WCI  18
$$

SDZ004>011-016>023-039-040-111300-
NORTHEAST SOUTH DAKOTA

CITY           SKY/WX    TMP DP  RH WIND       PRES   REMARKS
ABERDEEN       CLOUDY    14   9  80 CALM      30.23R
WATERTOWN      CLOUDY    12   5  73 S6        30.18F WCI   3
BROOKINGS      CLOUDY    11   7  84 SE6       30.22S WCI   1
SISSETON         N/A      8   3  80 CALM      30.25F
$$

SDZ017-020-022-023-036>040-048>070-111300-
SOUTHEAST SOUTH DAKOTA

CITY           SKY/WX    TMP DP  RH WIND       PRES   REMARKS
SIOUX FALLS    CLOUDY    13   5  70 SE7       30.25S WCI   3
HURON          CLOUDY    16  11  80 S7        30.23F WCI   6
CHAMBERLAIN    CLOUDY    21  20  94 SE8       30.19S WCI  12
MITCHELL       CLOUDY    18  13  80 SE9       30.24S WCI   7
YANKTON        CLOUDY    16   9  73 SE6       30.26S WCI   7
$$

ABBREVIATIONS USED IN REMARKS
   TC - TEMPERATURE IN CELSIUS
  WCI - WIND CHILL INDEX
   HX - HEAT INDEX
  VSB - VISIBILITY




USA.gov is the U.S. government's official web portal to all federal, state and local government web resources and services.